Regional Weather Roundup
Issued by NWS

Home | Current Version | Previous Version | Text Only | Print | Product List | Glossary Off
Versions: 1 2 3 4 5 6 7 8 9 10 11 12 13 14 15 16 17 18 19 20 21 22 23 24 25 26 27

000
ASUS45 KBOU 231307
RWRCO

WEATHER ROUNDUP FOR COLORADO
NATIONAL WEATHER SERVICE DENVER/BOULDER CO
700 AM MDT SAT SEP 23 2017

NOTE: "FAIR" INDICATES FEW OR NO CLOUDS BELOW 12000 FEET WITH NO
SIGNIFICANT WEATHER AND/OR OBSTRUCTIONS TO VISIBILITY.

COZ001>005-013-030-031-231400-
...NORTHWEST COLORADO...

CITY           SKY/WX    TMP DP  RH WIND       PRES   REMARKS
CRAIG          LGT RAIN  42  39  89 CALM      29.99R
HAYDEN         LGT RAIN  40  38  93 W7        30.00R
MEEKER         LGT RAIN  46  43  89 E15       29.93F
RABBIT EARS PA PTSUNNY   36  32  87 CALM      30.09R
STEAMBOAT SPGS MOCLDY    40  39  95 CALM      29.96R
WALDEN         FAIR      34  32  93 CALM      30.02S
$$

COZ006>008-011-231400-
...WEST CENTRAL VALLEYS...

CITY           SKY/WX    TMP DP  RH WIND       PRES   REMARKS
GRAND JUNCTION CLOUDY    55  46  71 SE22      29.85R
MONTROSE       LGT RAIN  50  47  89 NW12      29.94R
EAGLE          CLOUDY    45  39  79 CALM      29.96R
RIFLE          LGT RAIN  50  48  93 CALM      29.93S
DELTA          NOT AVBL
NUCLA          LGT RAIN  50  45  81 E7        29.95S
$$

COZ017>023-064>068-231400-
...SOUTHWEST COLORADO...

CITY           SKY/WX    TMP DP  RH WIND       PRES   REMARKS
DURANGO        FAIR      49  44  83 E10       29.91F
CORTEZ         LGT RAIN  49  47  93 N3        29.91S
PAGOSA SPRINGS MOCLDY    48  47  99 CALM      30.00F
TELLURIDE      TSTM      42  38  88 W13       30.02R
WOLF CREEK PAS TSTM      36  36 100 S29G41    30.21F
$$

COZ009-010-012-014-032>034-037-058>063-231400-
...CENTRAL COLORADO...

CITY           SKY/WX    TMP DP  RH WIND       PRES   REMARKS
ASPEN          MOCLDY    44  38  79 NW5       29.94S
BUENA VISTA    CLOUDY    45  43  93 CALM      30.03F
COPPER MTN     MOCLDY    41  30  65 S12G28    30.17R
BERTHOUD PASS  FAIR      34  27  75 S33G52    30.18S WCI  19
COTTONWOOD PAS CLOUDY    46  43  87 E5        30.11R
GUNNISON       FAIR      45  38  76 N10       29.97F
KREMMLING      FAIR      37  34  87 CALM      29.99R
LEADVILLE      CLOUDY    38  37  97 CALM      30.07F
MONARCH PASS   CLOUDY    36  34  93 S13G23    30.31S
SALIDA         CLOUDY    47  46  93 CALM      30.09S
SUNLIGHT       LGT RAIN  34  32  93 SW8       30.11F WCI  27
WILKERSON PASS CLOUDY    37  36  93 SW15G22   30.21S
$$

COZ069>075-231400-
...SAN LUIS VALLEY/SANGRE DE CRISTO MOUNTAINS...

CITY           SKY/WX    TMP DP  RH WIND       PRES   REMARKS
ALAMOSA        FAIR      44  42  93 W7        30.03F
DEL NORTE      MOCLDY    40  39  95 CALM      30.05F
LA VETA PASS   FAIR      43  37  81 S9G28     30.27F
SAGUACHE       FAIR      43  41  93 NE3       30.05R
$$

COZ035-036-038>040-231400-
...NORTHERN COLORADO FRONT RANGE...

CITY           SKY/WX    TMP DP  RH WIND       PRES   REMARKS
DENVER INTL AP FAIR      45  41  86 N8        29.99R
DMNS CITY PARK   N/A     47  40  77 NE12G17   29.99F
AURORA         MOCLDY    42  40  93 N5        30.01R
FRONT RANGE AP MOCLDY    43  41  93 N7        29.99R
ERIE MUNI ARPT CLOUDY    47  42  84 N5        30.05S
BOULDER MUN AP CLOUDY    46  41  81 N3        30.00S
CENTENNIAL     FAIR      45  41  86 N6        30.00R
BROOMFIELD     MOCLDY    46  41  81 MISG      30.01S
FORT COLLINS   CLOUDY    48  39  71 NE8       30.00F
LONGMONT       CLOUDY    50  42  73 N5        30.01S
$$

COZ041-046-047-076>085-087-088-231400-
...PIKES PEAK/PALMER DIVIDE AND SOUTHERN FOOTHILLS...

CITY           SKY/WX    TMP DP  RH WIND       PRES   REMARKS
COLO. SPRINGS  MOCLDY    51  39  63 N3        29.99R
A. F. ACADEMY  MOCLDY    46  37  70 N9        29.99S
SCHRIEVER AFB  MOCLDY    48  37  66 MISG      29.98R
CHEYENNE MTN   MOCLDY    53  37  54 N6        29.96R
ELLICOTT         N/A    N/A N/A N/A NE5       29.96R
FALCON         FAIR      48  37  65 N7        30.01R
FORT CARSON    MOCLDY    53  38  57 NW10      29.95R
LIMON            N/A    N/A N/A N/A MISG      29.98R
MONUMENT HILL  FAIR      37  36  93 W3        30.04R
CANON CITY     PTCLDY    55  43  62 N8        29.93S
WALSENBURG     CLOUDY    55  43  62 CALM      29.97R
TRINIDAD       TSTM      62  56  80 SW20G28   29.93R
$$

COZ042>045-048>051-090-091-231400-
...NORTHEAST COLORADO...

CITY           SKY/WX    TMP DP  RH WIND       PRES   REMARKS
GREELEY ARPT   CLOUDY    47  41  80 N9        29.99F
AKRON          CLOUDY    45  40  82 N12       29.97S
BURLINGTON     FAIR      53  47  79 NW9       29.93R
WRAY           CLOUDY    50  50 100 N10       29.94R
YUMA           CLOUDY    46  39  76 N9        29.95R
STERLING       CLOUDY    48  39  71 NE8       29.96R
HOLYOKE        CLOUDY    52  45  76 N15       29.95S
FORT MORGAN    CLOUDY    48  37  67 N9        29.99R
$$

COZ086-089-092>099-231400-
...SOUTHEAST COLORADO...

CITY           SKY/WX    TMP DP  RH WIND       PRES   REMARKS
PUEBLO         FAIR      58  40  51 N10       29.90R
LA JUNTA       FAIR      60  47  61 N12       29.89R
LAMAR          FAIR      66  60  81 E8        29.84R
SPRINGFIELD      N/A     61  61 100 S12       29.90S
$$




USA.gov is the U.S. government's official web portal to all federal, state and local government web resources and services.